[[{"header":{"parameterUnit":"m.s-1","parameterCategory":1,"la1":30.2991,"la2":30.254,"lo1":-89.0895,"lo2":-89.0444,"dy":0.0017,"dx":0.0017,"nx":28,"ny":28,"refTime":"2025-12-04T03:00:00:Z","depth":0,"parameterNumber":2,"parameterNumberName":"U-component_of_WINDS"},"data":[0,0,0,0,0,0,0,0,0,0,0,0,0,0,0,0,0,0,0,0,0,0,0,0,0,0,0,0,0,0,0,0,0,0,0,0,0,0,0,0,0,0,0,0,0,0,0,0,0,0,0,0,0,0,0,0,0,0,-0.0085,-0.0086,0,-0.0181,-0.0183,-0.0184,-0.0209,-0.0209,-0.0208,-0.0208,-0.0308,-0.0311,-0.0314,0,0,0,0,0,0,0,0,0,0,0,0,0,0.0078,0.0076,-0.0084,-0.0086,-0.0087,-0.0181,-0.0183,-0.0184,-0.021,-0.0209,-0.0208,-0.0207,-0.0307,-0.031,-0.0314,0,0,0,0,0,0,0,0,0,0,0,0,0,-0.0003,0.0075,-0.0084,-0.0111,-0.0114,-0.0181,-0.0183,-0.0184,-0.021,-0.0209,-0.0208,-0.0207,-0.0305,-0.031,-0.0315,-0.0362,0,0,-0.0329,-0.0332,0,0,0,0,0,0,0,0,0.0002,-0.0009,-0.0106,-0.0109,-0.0113,-0.0182,-0.0162,-0.0244,-0.021,-0.0174,-0.0208,-0.0207,-0.0267,-0.0275,-0.0295,-0.0367,-0.0371,-0.033,-0.0333,-0.0335,-0.0336,0,0,0,0,0,0,0,0.0008,-0.0005,-0.0123,-0.0107,-0.0112,-0.0118,-0.0129,-0.0178,-0.0224,-0.0177,-0.0179,-0.019,-0.0269,-0.029,-0.0297,-0.0372,-0.033,-0.0334,-0.0337,-0.0339,-0.0487,-0.0488,0,0,0,0,0,0,0.0018,0.0,-0.012,-0.0126,-0.0052,-0.0122,-0.0134,-0.0161,-0.0223,-0.0232,-0.019,-0.0191,-0.0282,-0.0292,-0.0301,-0.036,-0.0335,-0.0339,-0.0342,-0.0486,-0.0488,-0.0489,0,0,0,0,0,0,0.0021,0.0007,-0.0116,-0.0063,-0.008,-0.0126,-0.0156,-0.0163,-0.0185,-0.0234,-0.0242,-0.0204,-0.0282,-0.0294,-0.0346,-0.0364,-0.0342,-0.0346,-0.0485,-0.0487,-0.0488,-0.0479,0,0,0,0,0,0,0.0026,0.0009,-0.001,-0.0064,-0.0082,-0.016,-0.0157,-0.0166,-0.0193,-0.0194,-0.0249,-0.0257,-0.0282,-0.0339,-0.0351,-0.037,-0.035,-0.0484,-0.0486,-0.0488,-0.0478,-0.048,-0.0482,0,0,0,0,0,0.0032,-0.0004,-0.0011,-0.0025,-0.0106,-0.0161,-0.0172,-0.02,-0.0195,-0.0214,-0.0245,-0.0255,-0.036,-0.0344,-0.0358,-0.0379,-0.0483,-0.0485,-0.0487,-0.0477,-0.048,-0.0482,0,0,0,0,0,0,0.0049,-0.0011,-0.002,-0.0074,-0.0112,-0.0165,-0.019,-0.0202,-0.0242,-0.0242,-0.0275,-0.0287,-0.0337,-0.0363,-0.0345,-0.0428,-0.0421,-0.0427,-0.0409,-0.0412,-0.0414,-0.0407,-0.0354,0,0,0,0,0,0.0046,0.0007,-0.0043,-0.0086,-0.0105,-0.0144,-0.0169,-0.0187,-0.0228,-0.0244,-0.0279,-0.0319,-0.0361,-0.0388,-0.0429,-0.0482,-0.0494,-0.0503,-0.0505,-0.0506,-0.0511,-0.054,-0.0545,-0.0497,-0.0496,-0.0496,0,0,0.0041,0.0003,-0.002,-0.0084,-0.0115,-0.0155,-0.0157,-0.0199,-0.0229,-0.0251,-0.0302,-0.0329,-0.0375,-0.0428,-0.0453,-0.0451,-0.0526,-0.0509,-0.051,-0.0514,-0.0543,-0.0548,-0.0552,-0.0498,-0.0498,-0.0498,0,0,0.0009,-0.0023,-0.0062,-0.0094,-0.0141,-0.0167,-0.0176,-0.0227,-0.0246,-0.0298,-0.0315,-0.0351,-0.0422,-0.0454,-0.048,-0.0521,-0.0533,-0.0534,-0.0545,-0.0573,-0.0577,-0.0581,-0.0596,-0.0601,-0.0538,-0.0538,-0.0538,0,0.0008,-0.0053,-0.0081,-0.0122,-0.015,-0.017,-0.021,-0.0239,-0.0298,-0.0316,-0.0313,-0.0403,-0.0435,-0.0496,-0.0506,-0.0526,-0.0538,-0.0528,-0.0574,-0.0578,-0.0582,-0.0597,-0.0602,-0.0538,-0.0538,-0.0538,-0.0538,0,-0.0052,-0.0093,-0.0119,-0.0175,-0.0206,-0.0246,-0.028,-0.0307,-0.0323,-0.0348,-0.0401,-0.044,-0.049,-0.0505,-0.0521,-0.0568,-0.0565,-0.0568,-0.0562,-0.0586,-0.06,-0.0606,-0.0538,-0.0538,-0.0538,-0.0538,0,0,-0.0076,-0.0147,-0.0156,-0.0181,-0.0235,-0.0267,-0.0308,-0.0356,-0.0379,-0.0418,-0.0454,-0.0513,-0.0515,-0.0544,-0.0563,-0.0588,-0.0619,-0.0588,-0.059,-0.0593,-0.0673,-0.0672,-0.0678,-0.0626,-0.0627,-0.0628,-0.067,0,-0.0115,-0.0189,-0.0215,-0.0276,-0.0315,-0.0334,-0.037,-0.0406,-0.0431,-0.0467,-0.0495,-0.0536,-0.0536,-0.0554,-0.0579,-0.061,-0.0636,-0.0607,-0.066,-0.0661,-0.0648,-0.0685,-0.0684,-0.0721,-0.0675,-0.0676,-0.0677,0,-0.0169,-0.0209,-0.0274,-0.0322,-0.0339,-0.0371,-0.0417,-0.0451,-0.0493,-0.0509,-0.0541,-0.0558,-0.0601,-0.0592,-0.0652,-0.0632,-0.0655,-0.0673,-0.0675,-0.0682,-0.0671,-0.0694,-0.0734,-0.0739,-0.0686,-0.0685,-0.0685,0,-0.0181,-0.0251,-0.0299,-0.032,-0.0377,-0.0399,-0.0424,-0.0464,-0.0491,-0.0531,-0.0549,-0.0593,-0.0617,-0.0651,-0.068,-0.067,-0.0737,-0.073,-0.0752,-0.0751,-0.0766,-0.0765,-0.0811,-0.078,-0.0779,-0.0779,-0.0779,0,-0.0222,-0.0261,-0.0305,-0.0334,-0.0378,-0.0408,-0.045,-0.0476,-0.0512,-0.0547,-0.0566,-0.0598,-0.0633,-0.067,-0.0692,-0.0739,-0.075,-0.0764,-0.077,-0.0763,-0.0761,-0.0779,-0.0778,-0.0781,-0.0781,-0.078,-0.078,0,-0.0243,-0.0274,-0.0327,-0.0377,-0.039,-0.0421,-0.0463,-0.0492,-0.0517,-0.0561,-0.0573,-0.0612,-0.0656,-0.0688,-0.0744,-0.0759,-0.081,-0.0815,-0.0796,-0.0799,-0.0819,-0.0817,-0.0879,-0.0888,-0.0849,-0.0849,-0.085,0,-0.0267,-0.0298,-0.035,-0.0375,-0.0399,-0.0439,-0.0466,-0.0496,-0.0523,-0.0572,-0.0596,-0.0641,-0.0679,-0.0748,-0.0782,-0.0825,-0.0832,-0.0851,-0.0839,-0.0831,-0.0833,-0.0831,-0.0835,-0.0853,-0.0853,-0.0853,-0.0854,0,-0.0307,-0.0321,-0.0359,-0.0403,-0.0435,-0.0471,-0.0507,-0.0526,-0.0562,-0.0592,-0.0637,-0.0667,-0.0724,-0.0769,-0.0815,-0.0841,-0.0854,-0.0857,-0.0864,-0.0858,-0.0846,-0.0853,-0.0801,-0.0856,-0.0855,-0.0855,-0.0855,-0.0855,-0.0331,-0.0359,-0.04,-0.0442,-0.0473,-0.0506,-0.0536,-0.0564,-0.0602,-0.0651,-0.0666,-0.0713,-0.0753,-0.0817,-0.0843,-0.088,-0.0879,-0.0889,-0.0892,-0.0895,-0.0895,-0.0839,-0.0888,-0.0888,-0.0888,-0.0888,-0.0888,0,-0.0372,-0.0399,-0.0438,-0.0488,-0.0521,-0.0529,-0.0569,-0.0597,-0.0637,-0.0674,-0.071,-0.0762,-0.0805,-0.0842,-0.0886,-0.0909,-0.0916,-0.092,-0.0919,-0.0924,-0.0893,-0.0882,-0.0913,-0.0913,-0.0913,-0.0913,-0.0913,-0.0913,-0.0398,-0.0445,-0.0464,-0.0526,-0.0553,-0.0599,-0.0621,-0.0652,-0.0681,-0.0738,-0.0773,-0.0797,-0.0833,-0.088,-0.092,-0.093,-0.0946,-0.0949,-0.096,-0.093,-0.0927,-0.0924,-0.0914,-0.0952,-0.0952,-0.0988,-0.0989,-0.0989]},{"header":{"parameterUnit":"m.s-1","parameterCategory":1,"la1":30.2991,"la2":30.254,"lo1":-89.0895,"lo2":-89.0444,"dy":0.0017,"dx":0.0017,"nx":28,"ny":28,"refTime":"2025-12-04T03:00:00:Z","depth":0,"parameterNumber":3,"parameterNumberName":"V-component_of_WINDS"},"data":[0,0,0,0,0,0,0,0,0,0,0,0,0,0,0,0,0,0,0,0,0,0,0,0,0,0,0,0,0,0,0,0,0,0,0,0,0,0,0,0,0,0,0,0,0,0,0,0,0,0,0,0,0,0,0,0,0,0,-5.0334,-5.0334,0,-5.0361,-5.0362,-5.0362,-5.0302,-5.03,-5.0298,-5.0297,-5.0321,-5.0323,-5.0325,0,0,0,0,0,0,0,0,0,0,0,0,0,-5.0225,-5.0227,-5.0334,-5.0334,-5.0334,-5.0361,-5.0362,-5.0362,-5.0303,-5.03,-5.0298,-5.0296,-5.032,-5.0323,-5.0326,0,0,0,0,0,0,0,0,0,0,0,0,0,-5.0264,-5.0228,-5.0334,-5.0308,-5.0306,-5.0361,-5.0362,-5.0362,-5.0303,-5.03,-5.0297,-5.0295,-5.0319,-5.0322,-5.0326,-5.0406,0,0,-5.0337,-5.0339,0,0,0,0,0,0,0,0,-5.0262,-5.0268,-5.0312,-5.031,-5.0308,-5.0326,-5.0332,-5.0377,-5.0304,-5.0304,-5.0297,-5.0293,-5.0324,-5.0327,-5.0339,-5.0407,-5.0408,-5.0338,-5.034,-5.0341,-5.0342,0,0,0,0,0,0,0,-5.026,-5.0267,-5.0344,-5.0312,-5.031,-5.0294,-5.0296,-5.034,-5.033,-5.0304,-5.03,-5.0304,-5.0323,-5.0335,-5.0339,-5.0408,-5.0337,-5.0341,-5.0343,-5.0344,-5.0543,-5.0546,0,0,0,0,0,0,-5.0261,-5.0265,-5.0344,-5.0345,-5.0278,-5.0298,-5.0301,-5.0323,-5.0329,-5.0328,-5.0306,-5.0301,-5.0331,-5.0335,-5.0339,-5.0433,-5.0341,-5.0345,-5.0347,-5.054,-5.0544,-5.0547,0,0,0,0,0,0,-5.0259,-5.0268,-5.0342,-5.0304,-5.0312,-5.0303,-5.0328,-5.0325,-5.0337,-5.0331,-5.0329,-5.0322,-5.0328,-5.0334,-5.039,-5.0433,-5.0346,-5.035,-5.0536,-5.0541,-5.0546,-5.0621,0,0,0,0,0,0,-5.0256,-5.0268,-5.0299,-5.0305,-5.0315,-5.0394,-5.0331,-5.0327,-5.0344,-5.0338,-5.0345,-5.0343,-5.0327,-5.0385,-5.0394,-5.0436,-5.0352,-5.0533,-5.0539,-5.0544,-5.0615,-5.0628,-5.0639,0,0,0,0,0,-5.0252,-5.0318,-5.0301,-5.0311,-5.0354,-5.0397,-5.0402,-5.0383,-5.0348,-5.0379,-5.0375,-5.0343,-5.0427,-5.0391,-5.04,-5.0445,-5.053,-5.0537,-5.0544,-5.0609,-5.0625,-5.0639,0,0,0,0,0,0,-5.0316,-5.0319,-5.0299,-5.037,-5.0384,-5.0387,-5.0425,-5.04,-5.0423,-5.0416,-5.039,-5.0392,-5.0453,-5.0454,-5.0414,-5.0522,-5.0472,-5.0482,-5.0519,-5.0534,-5.0546,-5.0544,-5.0355,0,0,0,0,0,-5.0339,-5.0375,-5.0375,-5.0437,-5.0445,-5.0434,-5.0452,-5.0436,-5.0449,-5.0454,-5.0454,-5.0466,-5.0495,-5.0515,-5.0541,-5.0615,-5.0615,-5.065,-5.0662,-5.0672,-5.068,-5.0719,-5.0734,-5.057,-5.057,-5.057,0,0,-5.0385,-5.0391,-5.0415,-5.045,-5.0459,-5.0495,-5.0439,-5.048,-5.0507,-5.0459,-5.0512,-5.0513,-5.0525,-5.059,-5.0619,-5.0593,-5.0726,-5.0681,-5.0689,-5.0692,-5.0728,-5.0743,-5.0757,-5.0575,-5.0574,-5.0573,0,0,-5.0488,-5.0497,-5.055,-5.056,-5.0575,-5.0567,-5.058,-5.0587,-5.0586,-5.0639,-5.0604,-5.0635,-5.0686,-5.0696,-5.0707,-5.0815,-5.0786,-5.0824,-5.0887,-5.0925,-5.0938,-5.095,-5.0988,-5.1002,-5.0832,-5.0833,-5.0833,0,-5.0543,-5.0599,-5.0579,-5.0624,-5.0639,-5.06,-5.0653,-5.0663,-5.0685,-5.0696,-5.0668,-5.0732,-5.0737,-5.0803,-5.083,-5.0841,-5.0854,-5.0823,-5.0938,-5.095,-5.096,-5.0996,-5.101,-5.0837,-5.0837,-5.0836,-5.0836,0,-5.0666,-5.0705,-5.0745,-5.077,-5.079,-5.0838,-5.0825,-5.0847,-5.083,-5.0825,-5.0879,-5.0885,-5.0911,-5.0926,-5.0909,-5.0991,-5.0974,-5.0943,-5.0892,-5.098,-5.1013,-5.1027,-5.0844,-5.0842,-5.0841,-5.084,0,0,-5.0809,-5.0823,-5.0838,-5.0848,-5.0862,-5.0891,-5.0937,-5.0965,-5.0985,-5.1001,-5.1038,-5.1083,-5.1054,-5.1067,-5.1051,-5.1084,-5.1169,-5.1048,-5.1048,-5.107,-5.1258,-5.1282,-5.1298,-5.115,-5.1153,-5.1155,-5.1257,0,-5.0911,-5.0992,-5.0976,-5.1054,-5.1089,-5.1053,-5.1092,-5.1104,-5.1101,-5.1129,-5.1125,-5.1157,-5.1116,-5.1124,-5.1156,-5.1152,-5.1206,-5.1144,-5.1183,-5.1185,-5.1181,-5.1315,-5.134,-5.1436,-5.127,-5.1272,-5.1274,0,-5.1041,-5.1064,-5.1146,-5.1155,-5.1169,-5.1205,-5.1229,-5.1257,-5.127,-5.1265,-5.1281,-5.1258,-5.1302,-5.1251,-5.1311,-5.127,-5.1285,-5.1285,-5.1288,-5.1291,-5.1234,-5.1321,-5.1466,-5.1481,-5.1294,-5.1292,-5.1291,0,-5.1136,-5.1188,-5.1244,-5.1254,-5.1265,-5.1292,-5.1297,-5.1307,-5.1325,-5.1346,-5.1357,-5.1382,-5.1395,-5.1415,-5.1399,-5.1364,-5.1462,-5.141,-5.1458,-5.1458,-5.1479,-5.1478,-5.1629,-5.149,-5.149,-5.149,-5.149,0,-5.1251,-5.1303,-5.1287,-5.1322,-5.1378,-5.1359,-5.1415,-5.1416,-5.1425,-5.1458,-5.1427,-5.1459,-5.1437,-5.1466,-5.1454,-5.1505,-5.1511,-5.1508,-5.1504,-5.151,-5.1511,-5.1519,-5.1512,-5.1494,-5.1493,-5.1492,-5.1491,0,-5.1367,-5.1359,-5.1418,-5.1424,-5.1427,-5.1468,-5.1473,-5.1504,-5.1499,-5.1541,-5.155,-5.1541,-5.1574,-5.156,-5.1594,-5.1586,-5.1652,-5.1639,-5.1648,-5.1645,-5.1694,-5.1689,-5.1855,-5.1875,-5.1724,-5.1725,-5.1727,0,-5.1441,-5.148,-5.1491,-5.1512,-5.1521,-5.1554,-5.1572,-5.1555,-5.1575,-5.1593,-5.1622,-5.1652,-5.1675,-5.1729,-5.1725,-5.1751,-5.1738,-5.1795,-5.1742,-5.1747,-5.1738,-5.1736,-5.174,-5.1805,-5.1807,-5.1808,-5.1809,0,-5.1573,-5.1567,-5.1596,-5.1623,-5.1647,-5.1667,-5.1684,-5.1703,-5.1686,-5.171,-5.1744,-5.1762,-5.1798,-5.1828,-5.1851,-5.1855,-5.1829,-5.1826,-5.1838,-5.1845,-5.1848,-5.1847,-5.1676,-5.1822,-5.1821,-5.182,-5.1819,-5.1819,-5.1669,-5.1702,-5.1716,-5.1749,-5.176,-5.1778,-5.1808,-5.1807,-5.1835,-5.1864,-5.1851,-5.1891,-5.1902,-5.193,-5.1938,-5.1968,-5.1945,-5.1963,-5.1968,-5.1972,-5.1979,-5.1845,-5.1972,-5.1971,-5.1971,-5.1971,-5.197,0,-5.1799,-5.1806,-5.1836,-5.1863,-5.1889,-5.1864,-5.1882,-5.1905,-5.194,-5.1953,-5.1978,-5.2016,-5.2046,-5.2045,-5.2071,-5.2095,-5.2084,-5.2103,-5.21,-5.2102,-5.1997,-5.1984,-5.2111,-5.2111,-5.2111,-5.2111,-5.2111,-5.2111,-5.1869,-5.1924,-5.192,-5.198,-5.1986,-5.2025,-5.2038,-5.2053,-5.2064,-5.2109,-5.2134,-5.2133,-5.2141,-5.2168,-5.2193,-5.2192,-5.2203,-5.2226,-5.2221,-5.2123,-5.2109,-5.2096,-5.2083,-5.2229,-5.2229,-5.2322,-5.2323,-5.2324]}]]